Time,TemperatureF,DewpointF,PressureIn,WindDirection,WindDirectionDegrees,WindSpeedMPH,WindSpeedGustMPH,Humidity,HourlyPrecipIn,Conditions,Clouds,dailyrainin,SoftwareType,DateUTC
2013-01-16 00:00:00,18.2,10.1,29.69,SW,217,6.0,22.0,70,0.00,,---,0.00,VWS V13.01,2013-01-16 06:00:00,
2013-01-16 00:05:00,18.3,10.2,29.68,SW,230,6.0,18.0,70,0.00,,---,0.00,VWS V13.01,2013-01-16 06:05:00,
2013-01-16 00:11:00,18.3,9.9,29.68,SSW,213,5.0,18.0,69,0.00,,---,0.00,VWS V13.01,2013-01-16 06:11:00,
2013-01-16 00:16:00,18.3,9.9,29.65,South,177,12.0,18.0,69,0.00,,---,0.00,VWS V13.01,2013-01-16 06:16:00,
2013-01-16 00:21:00,18.4,9.9,29.65,South,187,10.0,17.0,69,0.00,,---,0.00,VWS V13.01,2013-01-16 06:21:00,
2013-01-16 00:26:00,18.5,9.7,29.65,South,172,7.0,17.0,68,0.00,,---,0.00,VWS V13.01,2013-01-16 06:26:00,
2013-01-16 00:31:00,18.6,9.8,29.61,South,176,3.0,18.0,68,0.00,,---,0.00,VWS V13.01,2013-01-16 06:31:00,
2013-01-16 00:36:00,18.6,10.1,29.61,South,186,4.0,12.0,69,0.00,,---,0.00,VWS V13.01,2013-01-16 06:36:00,
2013-01-16 00:42:00,18.7,9.9,29.61,SSW,205,9.0,16.0,68,0.00,,---,0.00,VWS V13.01,2013-01-16 06:42:00,
2013-01-16 00:47:00,18.8,10.0,29.60,South,179,3.0,5.0,68,0.00,,---,0.00,VWS V13.01,2013-01-16 06:47:00,
2013-01-16 00:52:00,18.9,10.4,29.60,South,180,7.0,17.0,69,0.00,,---,0.00,VWS V13.01,2013-01-16 06:52:00,
2013-01-16 00:57:00,18.9,11.1,29.60,SSW,204,3.0,17.0,71,0.00,,---,0.00,VWS V13.01,2013-01-16 06:57:00,
2013-01-16 01:03:00,18.6,11.7,29.57,SE,144,2.0,10.0,74,0.00,,---,0.00,VWS V13.01,2013-01-16 07:03:00,
2013-01-16 01:08:00,18.4,12.1,29.57,South,189,5.0,15.0,76,0.00,,---,0.00,VWS V13.01,2013-01-16 07:08:00,
2013-01-16 01:13:00,18.1,12.7,29.57,SSW,196,5.0,15.0,79,0.00,,---,0.00,VWS V13.01,2013-01-16 07:13:00,
2013-01-16 01:19:00,17.8,13.2,29.55,SSW,211,9.0,13.0,82,0.00,,---,0.00,VWS V13.01,2013-01-16 07:19:00,
2013-01-16 01:24:00,17.6,13.6,29.55,SSE,149,15.0,18.0,84,0.00,,---,0.00,VWS V13.01,2013-01-16 07:24:00,
2013-01-16 01:29:00,17.5,13.8,29.55,South,180,3.0,18.0,85,0.00,,---,0.00,VWS V13.01,2013-01-16 07:29:00,
2013-01-16 01:34:00,17.4,13.7,29.54,SSW,209,5.0,15.0,85,0.00,,---,0.00,VWS V13.01,2013-01-16 07:34:00,
2013-01-16 01:39:00,17.5,14.0,29.54,SSW,211,3.0,23.0,86,0.00,,---,0.00,VWS V13.01,2013-01-16 07:39:00,
2013-01-16 01:44:00,17.5,14.0,29.54,SSW,196,4.0,23.0,86,0.00,,---,0.00,VWS V13.01,2013-01-16 07:44:00,
2013-01-16 01:50:00,17.5,14.3,29.51,South,172,9.0,17.0,87,0.00,,---,0.00,VWS V13.01,2013-01-16 07:50:00,
2013-01-16 01:55:00,17.5,14.6,29.51,South,184,5.0,17.0,88,0.00,,---,0.00,VWS V13.01,2013-01-16 07:55:00,
2013-01-16 02:00:00,17.5,14.6,29.49,South,175,7.0,17.0,88,0.00,,---,0.00,VWS V13.01,2013-01-16 08:00:00,
2013-01-16 02:06:00,17.6,14.7,29.49,South,187,3.0,20.0,88,0.00,,---,0.00,VWS V13.01,2013-01-16 08:06:00,
2013-01-16 02:11:00,17.7,14.8,29.49,SSW,196,7.0,20.0,88,0.00,,---,0.00,VWS V13.01,2013-01-16 08:11:00,
2013-01-16 02:16:00,17.8,14.9,29.47,SSW,197,5.0,20.0,88,0.00,,---,0.00,VWS V13.01,2013-01-16 08:16:00,
2013-01-16 02:21:00,17.9,14.9,29.47,South,184,6.0,14.0,88,0.00,,---,0.00,VWS V13.01,2013-01-16 08:21:00,
2013-01-16 02:27:00,18.0,15.1,29.47,SSW,202,5.0,17.0,88,0.00,,---,0.00,VWS V13.01,2013-01-16 08:27:00,
2013-01-16 02:32:00,18.1,15.1,29.46,SSW,206,6.0,12.0,88,0.00,,---,0.00,VWS V13.01,2013-01-16 08:32:00,
2013-01-16 02:37:00,18.2,15.5,29.46,South,189,10.0,17.0,89,0.00,,---,0.00,VWS V13.01,2013-01-16 08:37:00,
2013-01-16 02:42:00,18.2,15.5,29.46,SSW,205,11.0,18.0,89,0.00,,---,0.00,VWS V13.01,2013-01-16 08:42:00,
2013-01-16 02:48:00,18.2,15.8,29.45,SSW,206,5.0,14.0,90,0.00,,---,0.00,VWS V13.01,2013-01-16 08:48:00,
2013-01-16 02:53:00,18.2,15.8,29.45,SSW,211,11.0,18.0,90,0.00,,---,0.00,VWS V13.01,2013-01-16 08:53:00,
2013-01-16 02:58:00,18.3,15.9,29.45,SW,227,6.0,18.0,90,0.00,,---,0.00,VWS V13.01,2013-01-16 08:58:00,
2013-01-16 03:03:00,18.3,15.9,29.46,South,184,4.0,13.0,90,0.00,,---,0.00,VWS V13.01,2013-01-16 09:03:00,
2013-01-16 03:08:00,18.3,15.9,29.46,SW,221,8.0,14.0,90,0.01,,---,0.01,VWS V13.01,2013-01-16 09:08:00,
2013-01-16 03:14:00,18.2,15.8,29.46,SSW,195,3.0,14.0,90,0.01,,---,0.01,VWS V13.01,2013-01-16 09:14:00,
2013-01-16 03:19:00,18.3,15.9,29.47,SW,225,8.0,12.0,90,0.01,,---,0.01,VWS V13.01,2013-01-16 09:19:00,
2013-01-16 03:24:00,18.2,15.8,29.47,SW,231,13.0,17.0,90,0.01,,---,0.01,VWS V13.01,2013-01-16 09:24:00,
2013-01-16 03:30:00,18.4,16.0,29.47,South,179,4.0,21.0,90,0.01,,---,0.01,VWS V13.01,2013-01-16 09:30:00,
2013-01-16 03:35:00,18.5,15.8,29.46,SW,222,6.0,12.0,89,0.01,,---,0.01,VWS V13.01,2013-01-16 09:35:00,
2013-01-16 03:40:00,18.5,15.8,29.46,SW,223,5.0,15.0,89,0.01,,---,0.01,VWS V13.01,2013-01-16 09:40:00,
2013-01-16 03:45:00,18.6,15.9,29.44,SW,217,4.0,15.0,89,0.01,,---,0.01,VWS V13.01,2013-01-16 09:45:00,
2013-01-16 03:51:00,18.7,16.0,29.44,WSW,245,6.0,19.0,89,0.01,,---,0.01,VWS V13.01,2013-01-16 09:51:00,
2013-01-16 03:56:00,18.8,16.1,29.44,SW,216,9.0,21.0,89,0.01,,---,0.01,VWS V13.01,2013-01-16 09:56:00,
2013-01-16 04:01:00,18.9,16.2,29.43,SW,217,6.0,21.0,89,0.01,,---,0.01,VWS V13.01,2013-01-16 10:01:00,
2013-01-16 04:06:00,18.9,16.2,29.43,SSW,210,16.0,16.0,89,0.01,,---,0.01,VWS V13.01,2013-01-16 10:06:00,
2013-01-16 04:11:00,19.0,16.6,29.43,SW,222,6.0,16.0,90,0.02,,---,0.02,VWS V13.01,2013-01-16 10:11:00,
2013-01-16 04:16:00,19.0,16.6,29.44,WSW,241,7.0,16.0,90,0.02,,---,0.02,VWS V13.01,2013-01-16 10:16:00,
2013-01-16 04:22:00,19.0,16.6,29.44,West,263,4.0,16.0,90,0.01,,---,0.02,VWS V13.01,2013-01-16 10:22:00,
2013-01-16 04:27:00,19.1,16.7,29.44,SSW,211,11.0,19.0,90,0.01,,---,0.02,VWS V13.01,2013-01-16 10:27:00,
2013-01-16 04:32:00,19.2,16.8,29.43,WNW,287,10.0,11.0,90,0.01,,---,0.02,VWS V13.01,2013-01-16 10:32:00,
2013-01-16 04:37:00,19.2,17.0,29.43,SW,226,6.0,14.0,91,0.01,,---,0.02,VWS V13.01,2013-01-16 10:37:00,
2013-01-16 04:42:00,19.3,17.1,29.43,SW,229,3.0,17.0,91,0.01,,---,0.02,VWS V13.01,2013-01-16 10:42:00,
2013-01-16 04:47:00,19.3,17.1,29.44,WSW,257,5.0,12.0,91,0.01,,---,0.02,VWS V13.01,2013-01-16 10:47:00,
2013-01-16 04:52:00,19.3,17.1,29.44,SW,236,6.0,14.0,91,0.01,,---,0.02,VWS V13.01,2013-01-16 10:52:00,
2013-01-16 04:58:00,19.4,17.2,29.44,West,279,13.0,14.0,91,0.01,,---,0.02,VWS V13.01,2013-01-16 10:58:00,
2013-01-16 05:03:00,19.5,17.3,29.44,West,263,4.0,11.0,91,0.01,,---,0.02,VWS V13.01,2013-01-16 11:03:00,
2013-01-16 05:08:00,19.5,17.3,29.44,SW,223,4.0,14.0,91,0.01,,---,0.02,VWS V13.01,2013-01-16 11:08:00,
2013-01-16 05:13:00,19.6,17.4,29.44,SW,232,6.0,14.0,91,0.01,,---,0.02,VWS V13.01,2013-01-16 11:13:00,
2013-01-16 05:19:00,19.6,17.4,29.43,WSW,238,12.0,17.0,91,0.00,,---,0.02,VWS V13.01,2013-01-16 11:19:00,
2013-01-16 05:24:00,19.7,17.5,29.43,West,267,11.0,17.0,91,0.00,,---,0.02,VWS V13.01,2013-01-16 11:24:00,
2013-01-16 05:29:00,19.7,17.5,29.43,WSW,250,4.0,17.0,91,0.00,,---,0.02,VWS V13.01,2013-01-16 11:29:00,
2013-01-16 05:34:00,19.7,17.5,29.44,WSW,246,10.0,17.0,91,0.00,,---,0.02,VWS V13.01,2013-01-16 11:34:00,
2013-01-16 05:40:00,19.7,17.5,29.44,WNW,294,9.0,17.0,91,0.00,,---,0.02,VWS V13.01,2013-01-16 11:40:00,
2013-01-16 05:45:00,19.8,17.6,29.44,West,269,13.0,18.0,91,0.00,,---,0.02,VWS V13.01,2013-01-16 11:45:00,
2013-01-16 05:50:00,19.8,17.6,29.44,West,280,17.0,17.0,91,0.00,,---,0.02,VWS V13.01,2013-01-16 11:50:00,
2013-01-16 05:56:00,19.9,17.7,29.44,WNW,299,4.0,17.0,91,0.00,,---,0.02,VWS V13.01,2013-01-16 11:56:00,
2013-01-16 06:01:00,19.9,18.0,29.44,WSW,257,4.0,19.0,92,0.00,,---,0.02,VWS V13.01,2013-01-16 12:01:00,
2013-01-16 06:06:00,20.0,18.0,29.44,West,281,5.0,17.0,92,0.00,,---,0.02,VWS V13.01,2013-01-16 12:06:00,
2013-01-16 06:12:00,20.0,18.0,29.44,West,277,9.0,17.0,92,0.00,,---,0.02,VWS V13.01,2013-01-16 12:12:00,
2013-01-16 06:17:00,20.0,18.0,29.46,NW,311,4.0,7.0,92,0.00,,---,0.02,VWS V13.01,2013-01-16 12:17:00,
2013-01-16 06:22:00,20.0,18.0,29.46,NW,307,4.0,18.0,92,0.00,,---,0.02,VWS V13.01,2013-01-16 12:22:00,
2013-01-16 06:27:00,20.0,18.0,29.46,West,278,11.0,18.0,92,0.00,,---,0.02,VWS V13.01,2013-01-16 12:27:00,
2013-01-16 06:33:00,19.9,18.0,29.47,WNW,297,11.0,15.0,92,0.00,,---,0.02,VWS V13.01,2013-01-16 12:33:00,
2013-01-16 06:38:00,19.9,18.0,29.47,WNW,303,9.0,22.0,92,0.00,,---,0.02,VWS V13.01,2013-01-16 12:38:00,
2013-01-16 06:43:00,19.9,18.2,29.47,West,269,9.0,22.0,93,0.00,,---,0.02,VWS V13.01,2013-01-16 12:43:00,
2013-01-16 06:48:00,19.9,18.2,29.47,West,275,7.0,12.0,93,0.00,,---,0.02,VWS V13.01,2013-01-16 12:48:00,
2013-01-16 06:54:00,19.9,18.2,29.47,WSW,245,16.0,16.0,93,0.00,,---,0.02,VWS V13.01,2013-01-16 12:54:00,
2013-01-16 06:59:00,19.9,18.2,29.47,WNW,286,4.0,16.0,93,0.00,,---,0.02,VWS V13.01,2013-01-16 12:59:00,
2013-01-16 07:04:00,19.9,18.0,29.48,West,279,6.0,16.0,92,0.00,,---,0.02,VWS V13.01,2013-01-16 13:04:00,
2013-01-16 07:10:00,19.9,18.0,29.48,WNW,285,4.0,23.0,92,0.00,,---,0.02,VWS V13.01,2013-01-16 13:10:00,
2013-01-16 07:15:00,19.8,17.9,29.48,West,277,13.0,23.0,92,0.00,,---,0.02,VWS V13.01,2013-01-16 13:15:00,
2013-01-16 07:20:00,19.7,17.8,29.48,NW,304,9.0,19.0,92,0.00,,---,0.02,VWS V13.01,2013-01-16 13:20:00,
2013-01-16 07:25:00,19.7,17.8,29.48,West,271,2.0,19.0,92,0.00,,---,0.02,VWS V13.01,2013-01-16 13:25:00,
2013-01-16 07:31:00,19.7,17.8,29.49,NW,320,6.0,19.0,92,0.00,,---,0.02,VWS V13.01,2013-01-16 13:31:00,
2013-01-16 07:36:00,19.7,17.8,29.49,WNW,300,11.0,18.0,92,0.00,,---,0.02,VWS V13.01,2013-01-16 13:36:00,
2013-01-16 07:41:00,19.7,17.5,29.49,West,280,2.0,21.0,91,0.00,,---,0.02,VWS V13.01,2013-01-16 13:41:00,
2013-01-16 07:46:00,19.5,17.3,29.52,NNW,340,3.0,21.0,91,0.00,,---,0.02,VWS V13.01,2013-01-16 13:46:00,
2013-01-16 07:51:00,19.4,17.2,29.52,West,263,6.0,19.0,91,0.00,,---,0.02,VWS V13.01,2013-01-16 13:51:00,
2013-01-16 07:57:00,19.2,17.0,29.52,NNW,336,6.0,19.0,91,0.00,,---,0.02,VWS V13.01,2013-01-16 13:57:00,
2013-01-16 08:02:00,19.1,16.9,29.54,West,266,5.0,9.0,91,0.00,,---,0.02,VWS V13.01,2013-01-16 14:02:00,
2013-01-16 08:07:00,19.0,16.8,29.54,WNW,283,5.0,15.0,91,0.00,,---,0.02,VWS V13.01,2013-01-16 14:07:00,
2013-01-16 08:12:00,19.0,16.8,29.54,NW,324,10.0,19.0,91,0.00,,---,0.02,VWS V13.01,2013-01-16 14:12:00,
2013-01-16 08:17:00,18.8,16.4,29.55,WNW,286,13.0,16.0,90,0.00,,---,0.02,VWS V13.01,2013-01-16 14:17:00,
2013-01-16 08:23:00,18.7,16.3,29.55,NW,309,7.0,16.0,90,0.00,,---,0.02,VWS V13.01,2013-01-16 14:23:00,
2013-01-16 08:28:00,18.5,15.8,29.55,North,355,7.0,22.0,89,0.00,,---,0.02,VWS V13.01,2013-01-16 14:28:00,
2013-01-16 08:33:00,18.3,15.6,29.56,NW,306,10.0,17.0,89,0.00,,---,0.02,VWS V13.01,2013-01-16 14:33:00,
2013-01-16 08:39:00,18.1,15.4,29.56,NW,325,5.0,17.0,89,0.00,,---,0.02,VWS V13.01,2013-01-16 14:39:00,
2013-01-16 08:44:00,18.0,15.1,29.56,NW,319,12.0,17.0,88,0.00,,---,0.02,VWS V13.01,2013-01-16 14:44:00,
2013-01-16 08:49:00,17.8,14.9,29.58,NNW,339,16.0,18.0,88,0.00,,---,0.02,VWS V13.01,2013-01-16 14:49:00,
2013-01-16 08:54:00,17.6,14.7,29.58,NW,321,17.0,20.0,88,0.00,,---,0.02,VWS V13.01,2013-01-16 14:54:00,
2013-01-16 09:00:00,17.3,14.1,29.58,NW,310,11.0,20.0,87,0.00,,---,0.02,VWS V13.01,2013-01-16 15:00:00,
2013-01-16 09:05:00,17.0,13.8,29.61,NW,325,6.0,16.0,87,0.00,,---,0.02,VWS V13.01,2013-01-16 15:05:00,
2013-01-16 09:10:00,16.7,13.8,29.61,NW,313,5.0,16.0,88,0.00,,---,0.02,VWS V13.01,2013-01-16 15:10:00,
2013-01-16 09:15:00,16.2,13.5,29.62,WNW,291,6.0,16.0,89,0.00,,---,0.02,VWS V13.01,2013-01-16 15:15:00,
2013-01-16 09:21:00,16.0,13.1,29.62,NW,323,11.0,18.0,88,0.00,,---,0.02,VWS V13.01,2013-01-16 15:21:00,
2013-01-16 09:26:00,15.6,12.2,29.62,West,273,6.0,19.0,86,0.00,,---,0.02,VWS V13.01,2013-01-16 15:26:00,
2013-01-16 09:31:00,15.3,11.6,29.64,WNW,296,11.0,19.0,85,0.00,,---,0.02,VWS V13.01,2013-01-16 15:31:00,
2013-01-16 09:36:00,15.2,11.2,29.64,West,281,10.0,20.0,84,0.00,,---,0.02,VWS V13.01,2013-01-16 15:36:00,
2013-01-16 09:42:00,15.0,11.1,29.64,NW,306,10.0,20.0,84,0.00,,---,0.02,VWS V13.01,2013-01-16 15:42:00,
2013-01-16 09:47:00,14.9,11.2,29.65,NW,323,12.0,15.0,85,0.00,,---,0.02,VWS V13.01,2013-01-16 15:47:00,
2013-01-16 09:52:00,14.8,11.1,29.65,NW,310,10.0,15.0,85,0.00,,---,0.02,VWS V13.01,2013-01-16 15:52:00,
2013-01-16 09:57:00,14.8,11.4,29.65,West,276,10.0,15.0,86,0.00,,---,0.02,VWS V13.01,2013-01-16 15:57:00,
2013-01-16 10:03:00,14.8,11.4,29.65,NNW,331,4.0,9.0,86,0.00,,---,0.02,VWS V13.01,2013-01-16 16:03:00,
2013-01-16 10:08:00,14.8,11.4,29.65,NW,311,4.0,17.0,86,0.00,,---,0.02,VWS V13.01,2013-01-16 16:08:00,
2013-01-16 10:13:00,14.6,11.4,29.65,WNW,289,9.0,17.0,87,0.00,,---,0.02,VWS V13.01,2013-01-16 16:13:00,
2013-01-16 10:18:00,14.3,11.1,29.66,NW,308,6.0,13.0,87,0.00,,---,0.02,VWS V13.01,2013-01-16 16:18:00,
2013-01-16 10:24:00,14.0,10.9,29.66,NNW,327,9.0,14.0,87,0.00,,---,0.02,VWS V13.01,2013-01-16 16:24:00,
2013-01-16 10:29:00,13.9,11.0,29.66,NNW,329,3.0,14.0,88,0.00,,---,0.02,VWS V13.01,2013-01-16 16:29:00,
2013-01-16 10:34:00,13.5,10.4,29.68,NW,306,7.0,16.0,87,0.00,,---,0.02,VWS V13.01,2013-01-16 16:34:00,
2013-01-16 10:40:00,13.3,10.2,29.68,NNE,13,6.0,16.0,87,0.00,,---,0.02,VWS V13.01,2013-01-16 16:40:00,
2013-01-16 10:45:00,13.0,9.9,29.68,WNW,302,9.0,17.0,87,0.00,,---,0.02,VWS V13.01,2013-01-16 16:45:00,
2013-01-16 10:50:00,12.9,9.5,29.71,NNW,329,10.0,18.0,86,0.00,,---,0.02,VWS V13.01,2013-01-16 16:50:00,
2013-01-16 10:55:00,12.9,9.2,29.71,WNW,291,4.0,18.0,85,0.00,,---,0.02,VWS V13.01,2013-01-16 16:55:00,
2013-01-16 11:01:00,12.7,8.8,29.71,WNW,292,9.0,22.0,84,0.00,,---,0.02,VWS V13.01,2013-01-16 17:01:00,
2013-01-16 11:06:00,12.3,7.6,29.71,North,9,12.0,23.0,81,0.00,,---,0.02,VWS V13.01,2013-01-16 17:06:00,
2013-01-16 11:11:00,12.1,7.4,29.71,NW,318,12.0,23.0,81,0.00,,---,0.02,VWS V13.01,2013-01-16 17:11:00,
2013-01-16 11:16:00,12.4,7.4,29.72,NW,323,16.0,23.0,80,0.00,,---,0.02,VWS V13.01,2013-01-16 17:16:00,
2013-01-16 11:22:00,12.7,7.7,29.72,WNW,294,4.0,22.0,80,0.00,,---,0.02,VWS V13.01,2013-01-16 17:22:00,
2013-01-16 11:27:00,12.9,7.6,29.72,North,350,10.0,23.0,79,0.00,,---,0.02,VWS V13.01,2013-01-16 17:27:00,
2013-01-16 11:32:00,13.3,7.7,29.72,West,281,12.0,19.0,78,0.00,,---,0.02,VWS V13.01,2013-01-16 17:32:00,
2013-01-16 11:37:00,13.2,7.6,29.72,West,264,10.0,21.0,78,0.00,,---,0.02,VWS V13.01,2013-01-16 17:37:00,
2013-01-16 11:43:00,13.2,7.3,29.72,NW,306,10.0,21.0,77,0.00,,---,0.02,VWS V13.01,2013-01-16 17:43:00,
2013-01-16 11:48:00,13.9,8.3,29.72,West,260,6.0,12.0,78,0.00,,---,0.02,VWS V13.01,2013-01-16 17:48:00,
2013-01-16 11:53:00,14.0,7.8,29.72,WNW,302,11.0,18.0,76,0.00,,---,0.02,VWS V13.01,2013-01-16 17:53:00,
2013-01-16 11:58:00,14.2,8.0,29.72,NW,324,11.0,20.0,76,0.00,,---,0.02,VWS V13.01,2013-01-16 17:58:00,
2013-01-16 12:03:00,14.1,7.7,29.73,NNW,344,14.0,18.0,75,0.00,,---,0.02,VWS V13.01,2013-01-16 18:03:00,
2013-01-16 12:09:00,13.2,6.2,29.73,NW,323,10.0,24.0,73,0.00,,---,0.02,VWS V13.01,2013-01-16 18:09:00,
2013-01-16 12:14:00,13.1,6.4,29.73,WNW,289,9.0,24.0,74,0.00,,---,0.02,VWS V13.01,2013-01-16 18:14:00,
2013-01-16 12:19:00,12.9,5.9,29.74,NW,324,9.0,19.0,73,0.00,,---,0.02,VWS V13.01,2013-01-16 18:19:00,
2013-01-16 12:24:00,13.1,6.4,29.74,NW,316,7.0,21.0,74,0.00,,---,0.02,VWS V13.01,2013-01-16 18:24:00,
2013-01-16 12:30:00,13.5,5.9,29.74,WNW,296,15.0,21.0,71,0.00,,---,0.02,VWS V13.01,2013-01-16 18:30:00,
2013-01-16 12:35:00,13.0,5.1,29.75,NNW,330,9.0,25.0,70,0.00,,---,0.02,VWS V13.01,2013-01-16 18:35:00,
2013-01-16 12:40:00,12.8,5.2,29.75,WSW,246,5.0,25.0,71,0.00,,---,0.02,VWS V13.01,2013-01-16 18:40:00,
2013-01-16 12:45:00,12.5,4.9,29.76,NNW,346,12.0,25.0,71,0.00,,---,0.02,VWS V13.01,2013-01-16 18:45:00,
2013-01-16 12:51:00,12.6,5.3,29.76,WNW,296,2.0,17.0,72,0.00,,---,0.02,VWS V13.01,2013-01-16 18:51:00,
2013-01-16 12:56:00,12.7,5.4,29.76,NW,319,11.0,17.0,72,0.00,,---,0.02,VWS V13.01,2013-01-16 18:56:00,
2013-01-16 13:01:00,12.7,6.0,29.78,NW,313,10.0,21.0,74,0.00,,---,0.02,VWS V13.01,2013-01-16 19:01:00,
2013-01-16 13:06:00,12.3,5.9,29.78,North,5,4.0,16.0,75,0.00,,---,0.02,VWS V13.01,2013-01-16 19:06:00,
2013-01-16 13:11:00,11.7,5.3,29.78,NNW,336,6.0,16.0,75,0.00,,---,0.02,VWS V13.01,2013-01-16 19:11:00,
2013-01-16 13:17:00,10.8,4.4,29.81,NNW,348,19.0,19.0,75,0.00,,---,0.02,VWS V13.01,2013-01-16 19:17:00,
2013-01-16 13:22:00,11.3,3.7,29.81,WNW,296,6.0,19.0,71,0.00,,---,0.02,VWS V13.01,2013-01-16 19:22:00,
2013-01-16 13:27:00,12.1,4.2,29.81,WNW,286,9.0,19.0,70,0.00,,---,0.02,VWS V13.01,2013-01-16 19:27:00,
2013-01-16 13:32:00,11.8,3.6,29.81,WNW,301,16.0,17.0,69,0.00,,---,0.02,VWS V13.01,2013-01-16 19:32:00,
2013-01-16 13:38:00,11.7,2.2,29.81,West,281,3.0,21.0,65,0.00,,---,0.02,VWS V13.01,2013-01-16 19:38:00,
2013-01-16 13:43:00,11.6,2.1,29.81,WNW,286,13.0,21.0,65,0.00,,---,0.02,VWS V13.01,2013-01-16 19:43:00,
2013-01-16 13:48:00,11.4,1.9,29.83,North,355,6.0,14.0,65,0.00,,---,0.02,VWS V13.01,2013-01-16 19:48:00,
2013-01-16 13:55:00,11.4,2.3,29.83,WNW,290,18.0,18.0,66,0.00,,---,0.02,VWS V13.01,2013-01-16 19:55:00,
2013-01-16 14:00:00,11.2,1.1,29.83,WSW,237,9.0,18.0,63,0.00,,---,0.02,VWS V13.01,2013-01-16 20:00:00,
2013-01-16 14:05:00,11.1,1.0,29.85,North,5,10.0,20.0,63,0.00,,---,0.02,VWS V13.01,2013-01-16 20:05:00,
2013-01-16 14:10:00,10.9,-0.2,29.85,NW,316,5.0,20.0,60,0.00,,---,0.02,VWS V13.01,2013-01-16 20:10:00,
2013-01-16 14:16:00,10.8,0.3,29.87,NNW,338,9.0,20.0,62,0.00,,---,0.02,VWS V13.01,2013-01-16 20:16:00,
2013-01-16 14:21:00,10.6,0.2,29.87,NW,313,13.0,15.0,62,0.00,,---,0.02,VWS V13.01,2013-01-16 20:21:00,
2013-01-16 14:26:00,10.0,-0.4,29.87,NW,309,5.0,17.0,62,0.00,,---,0.02,VWS V13.01,2013-01-16 20:26:00,
2013-01-16 14:31:00,9.9,-0.9,29.89,NW,308,12.0,17.0,61,0.00,,---,0.02,VWS V13.01,2013-01-16 20:31:00,
2013-01-16 14:36:00,9.6,-2.6,29.89,WNW,290,10.0,22.0,57,0.00,,---,0.02,VWS V13.01,2013-01-16 20:36:00,
2013-01-16 14:41:00,9.4,-2.4,29.89,WNW,303,6.0,22.0,58,0.00,,---,0.02,VWS V13.01,2013-01-16 20:41:00,
2013-01-16 14:47:00,9.5,-1.9,29.90,North,5,9.0,11.0,59,0.00,,---,0.02,VWS V13.01,2013-01-16 20:47:00,
2013-01-16 14:52:00,9.3,-2.1,29.90,NNW,348,6.0,20.0,59,0.00,,---,0.02,VWS V13.01,2013-01-16 20:52:00,
2013-01-16 14:57:00,9.4,-2.0,29.90,NNW,344,10.0,20.0,59,0.00,,---,0.02,VWS V13.01,2013-01-16 20:57:00,
2013-01-16 15:03:00,9.2,-1.5,29.93,West,267,2.0,13.0,61,0.00,,---,0.02,VWS V13.01,2013-01-16 21:03:00,
2013-01-16 15:08:00,9.2,-2.2,29.93,NW,309,4.0,18.0,59,0.00,,---,0.02,VWS V13.01,2013-01-16 21:08:00,
2013-01-16 15:13:00,8.9,-2.5,29.93,WNW,293,7.0,18.0,59,0.00,,---,0.02,VWS V13.01,2013-01-16 21:13:00,
2013-01-16 15:19:00,8.6,-3.1,29.94,NW,319,11.0,19.0,58,0.00,,---,0.02,VWS V13.01,2013-01-16 21:19:00,
2013-01-16 15:24:00,8.4,-3.0,29.94,NW,314,4.0,19.0,59,0.00,,---,0.02,VWS V13.01,2013-01-16 21:24:00,
2013-01-16 15:29:00,8.2,-2.5,29.94,WNW,290,11.0,19.0,61,0.00,,---,0.02,VWS V13.01,2013-01-16 21:29:00,
2013-01-16 15:34:00,7.9,-3.1,29.97,NNW,341,4.0,11.0,60,0.00,,---,0.02,VWS V13.01,2013-01-16 21:34:00,
2013-01-16 15:39:00,7.8,-3.5,29.97,NW,304,7.0,15.0,59,0.00,,---,0.02,VWS V13.01,2013-01-16 21:39:00,
2013-01-16 15:45:00,7.3,-4.4,29.97,NW,307,13.0,20.0,58,0.00,,---,0.02,VWS V13.01,2013-01-16 21:45:00,
2013-01-16 15:50:00,7.0,-4.7,29.99,NNW,334,10.0,16.0,58,0.00,,---,0.02,VWS V13.01,2013-01-16 21:50:00,
2013-01-16 15:55:00,6.7,-4.6,29.99,NW,321,5.0,19.0,59,0.00,,---,0.02,VWS V13.01,2013-01-16 21:55:00,
2013-01-16 16:00:00,6.4,-5.6,30.03,NNW,331,4.0,19.0,57,0.00,,---,0.02,VWS V13.01,2013-01-16 22:00:00,
2013-01-16 16:06:00,6.1,-5.5,30.03,NW,320,8.0,17.0,58,0.00,,---,0.02,VWS V13.01,2013-01-16 22:06:00,
2013-01-16 16:11:00,5.8,-5.1,30.03,NW,311,9.0,17.0,60,0.00,,---,0.02,VWS V13.01,2013-01-16 22:11:00,
2013-01-16 16:16:00,5.5,-5.4,30.03,NW,319,4.0,17.0,60,0.00,,---,0.02,VWS V13.01,2013-01-16 22:16:00,
2013-01-16 16:21:00,5.2,-5.7,30.03,North,5,9.0,15.0,60,0.00,,---,0.02,VWS V13.01,2013-01-16 22:21:00,
2013-01-16 16:27:00,5.0,-5.2,30.03,WNW,296,6.0,15.0,62,0.00,,---,0.02,VWS V13.01,2013-01-16 22:27:00,
2013-01-16 16:32:00,4.7,-5.1,30.06,NNW,346,7.0,10.0,63,0.00,,---,0.02,VWS V13.01,2013-01-16 22:32:00,
2013-01-16 16:37:00,4.4,-4.8,30.06,WNW,296,7.0,14.0,65,0.00,,---,0.02,VWS V13.01,2013-01-16 22:37:00,
2013-01-16 16:42:00,4.0,-4.5,30.06,NW,317,9.0,18.0,67,0.00,,---,0.02,VWS V13.01,2013-01-16 22:42:00,
2013-01-16 16:47:00,3.6,-4.9,30.08,North,355,2.0,12.0,67,0.00,,---,0.02,VWS V13.01,2013-01-16 22:47:00,
2013-01-16 16:53:00,3.3,-5.2,30.08,NW,325,9.0,19.0,67,0.00,,---,0.02,VWS V13.01,2013-01-16 22:53:00,
2013-01-16 16:58:00,3.0,-5.5,30.08,WNW,301,6.0,19.0,67,0.00,,---,0.02,VWS V13.01,2013-01-16 22:58:00,
2013-01-16 17:03:00,2.8,-5.7,30.12,WNW,290,6.0,10.0,67,0.00,,---,0.02,VWS V13.01,2013-01-16 23:03:00,
2013-01-16 17:08:00,2.5,-5.6,30.12,WNW,302,7.0,15.0,68,0.00,,---,0.02,VWS V13.01,2013-01-16 23:08:00,
2013-01-16 17:14:00,2.3,-5.8,30.12,NW,325,4.0,17.0,68,0.00,,---,0.02,VWS V13.01,2013-01-16 23:14:00,
2013-01-16 17:19:00,1.9,-6.2,30.13,NNW,346,1.0,15.0,68,0.00,,---,0.02,VWS V13.01,2013-01-16 23:19:00,
2013-01-16 17:24:00,1.5,-7.5,30.13,North,5,9.0,15.0,65,0.00,,---,0.02,VWS V13.01,2013-01-16 23:24:00,
2013-01-16 17:29:00,0.9,-10.1,30.13,NNW,338,8.0,18.0,59,0.00,,---,0.02,VWS V13.01,2013-01-16 23:29:00,
2013-01-16 17:35:00,0.4,-10.9,30.16,NW,319,11.0,16.0,58,0.00,,---,0.02,VWS V13.01,2013-01-16 23:35:00,
2013-01-16 17:40:00,0.1,-11.3,30.16,NW,325,14.0,20.0,58,0.00,,---,0.02,VWS V13.01,2013-01-16 23:40:00,
2013-01-16 17:45:00,-0.3,-11.2,30.16,NNW,329,2.0,20.0,59,0.00,,---,0.02,VWS V13.01,2013-01-16 23:45:00,
2013-01-16 17:50:00,-0.6,-11.1,30.18,NNW,340,15.0,19.0,60,0.00,,---,0.02,VWS V13.01,2013-01-16 23:50:00,
2013-01-16 17:56:00,-0.9,-11.1,30.18,NNW,342,8.0,19.0,61,0.00,,---,0.02,VWS V13.01,2013-01-16 23:56:00,
2013-01-16 18:01:00,-1.0,-11.2,30.21,NNW,327,7.0,19.0,61,0.00,,---,0.02,VWS V13.01,2013-01-17 00:01:00,
2013-01-16 18:06:00,-1.2,-11.1,30.21,NW,322,6.0,13.0,62,0.00,,---,0.02,VWS V13.01,2013-01-17 00:06:00,
2013-01-16 18:11:00,-1.4,-11.2,30.21,NNW,348,6.0,13.0,62,0.00,,---,0.02,VWS V13.01,2013-01-17 00:11:00,
2013-01-16 18:17:00,-1.6,-11.1,30.23,NNW,327,5.0,10.0,63,0.00,,---,0.02,VWS V13.01,2013-01-17 00:17:00,
2013-01-16 18:22:00,-1.8,-11.3,30.23,NW,322,7.0,15.0,63,0.00,,---,0.02,VWS V13.01,2013-01-17 00:22:00,
2013-01-16 18:27:00,-2.0,-11.5,30.23,WNW,301,5.0,15.0,63,0.00,,---,0.02,VWS V13.01,2013-01-17 00:27:00,
2013-01-16 18:32:00,-2.2,-11.4,30.24,NW,318,5.0,10.0,64,0.00,,---,0.02,VWS V13.01,2013-01-17 00:32:00,
2013-01-16 18:38:00,-2.5,-11.7,30.24,NW,309,11.0,14.0,64,0.00,,---,0.02,VWS V13.01,2013-01-17 00:38:00,
2013-01-16 18:43:00,-2.7,-11.5,30.24,NW,317,9.0,14.0,65,0.00,,---,0.02,VWS V13.01,2013-01-17 00:43:00,
2013-01-16 18:48:00,-3.0,-11.2,30.27,NW,311,13.0,19.0,67,0.00,,---,0.02,VWS V13.01,2013-01-17 00:48:00,
2013-01-16 18:53:00,-3.2,-11.4,30.27,NNW,341,7.0,19.0,67,0.00,,---,0.02,VWS V13.01,2013-01-17 00:53:00,
2013-01-16 18:59:00,-3.5,-11.4,30.27,NNW,333,7.0,19.0,68,0.00,,---,0.02,VWS V13.01,2013-01-17 00:59:00,
2013-01-16 19:04:00,-3.7,-11.6,30.28,NNW,328,10.0,11.0,68,0.00,,---,0.02,VWS V13.01,2013-01-17 01:04:00,
2013-01-16 19:09:00,-3.9,-11.5,30.28,NW,314,12.0,16.0,69,0.00,,---,0.02,VWS V13.01,2013-01-17 01:09:00,
2013-01-16 19:15:00,-4.0,-11.6,30.28,NW,325,6.0,16.0,69,0.00,,---,0.02,VWS V13.01,2013-01-17 01:15:00,
2013-01-16 19:20:00,-4.3,-11.9,30.31,NNW,340,4.0,13.0,69,0.00,,---,0.02,VWS V13.01,2013-01-17 01:20:00,
2013-01-16 19:25:00,-4.5,-11.8,30.31,NW,309,9.0,14.0,70,0.00,,---,0.02,VWS V13.01,2013-01-17 01:25:00,
2013-01-16 19:30:00,-4.9,-12.4,30.32,NW,305,11.0,20.0,69,0.00,,---,0.02,VWS V13.01,2013-01-17 01:30:00,
2013-01-16 19:36:00,-5.3,-12.8,30.32,North,355,9.0,14.0,69,0.00,,---,0.02,VWS V13.01,2013-01-17 01:36:00,
2013-01-16 19:41:00,-5.6,-13.4,30.32,NNW,327,8.0,19.0,68,0.00,,---,0.02,VWS V13.01,2013-01-17 01:41:00,
2013-01-16 19:46:00,-5.9,-14.0,30.34,NNW,344,10.0,19.0,67,0.00,,---,0.02,VWS V13.01,2013-01-17 01:46:00,
2013-01-16 19:51:00,-6.1,-14.2,30.34,NNW,338,15.0,16.0,67,0.00,,---,0.02,VWS V13.01,2013-01-17 01:51:00,
2013-01-16 19:57:00,-6.3,-14.4,30.34,NW,316,2.0,16.0,67,0.00,,---,0.02,VWS V13.01,2013-01-17 01:57:00,
2013-01-16 20:02:00,-6.5,-14.3,30.36,NNW,336,3.0,7.0,68,0.00,,---,0.02,VWS V13.01,2013-01-17 02:02:00,
2013-01-16 20:07:00,-6.6,-14.1,30.36,North,350,4.0,9.0,69,0.00,,---,0.02,VWS V13.01,2013-01-17 02:07:00,
2013-01-16 20:12:00,-6.9,-14.1,30.36,North,355,2.0,9.0,70,0.00,,---,0.02,VWS V13.01,2013-01-17 02:12:00,
2013-01-16 20:18:00,-7.1,-14.0,30.38,NW,324,7.0,13.0,71,0.00,,---,0.02,VWS V13.01,2013-01-17 02:18:00,
2013-01-16 20:23:00,-7.2,-14.1,30.38,North,360,3.0,14.0,71,0.00,,---,0.02,VWS V13.01,2013-01-17 02:23:00,
2013-01-16 20:28:00,-7.4,-14.0,30.38,NW,325,1.0,16.0,72,0.00,,---,0.02,VWS V13.01,2013-01-17 02:28:00,
2013-01-16 20:33:00,-7.6,-14.2,30.40,NNW,327,5.0,15.0,72,0.00,,---,0.02,VWS V13.01,2013-01-17 02:33:00,
2013-01-16 20:39:00,-7.7,-14.3,30.40,NNW,340,12.0,17.0,72,0.00,,---,0.02,VWS V13.01,2013-01-17 02:39:00,
2013-01-16 20:44:00,-7.9,-14.5,30.40,NNW,335,6.0,17.0,72,0.00,,---,0.02,VWS V13.01,2013-01-17 02:44:00,
2013-01-16 20:49:00,-8.0,-14.3,30.41,NNW,327,9.0,12.0,73,0.00,,---,0.02,VWS V13.01,2013-01-17 02:49:00,
2013-01-16 20:54:00,-8.2,-14.5,30.41,NW,325,3.0,15.0,73,0.00,,---,0.02,VWS V13.01,2013-01-17 02:54:00,
2013-01-16 21:00:00,-8.4,-14.7,30.41,NNW,347,5.0,15.0,73,0.00,,---,0.02,VWS V13.01,2013-01-17 03:00:00,
2013-01-16 21:05:00,-8.5,-14.5,30.42,NW,317,2.0,10.0,74,0.00,,---,0.02,VWS V13.01,2013-01-17 03:05:00,
2013-01-16 21:10:00,-8.6,-14.6,30.42,WNW,297,4.0,13.0,74,0.00,,---,0.02,VWS V13.01,2013-01-17 03:10:00,
2013-01-16 21:15:00,-8.8,-14.8,30.45,NW,306,2.0,13.0,74,0.00,,---,0.02,VWS V13.01,2013-01-17 03:15:00,
2013-01-16 21:21:00,-8.9,-14.7,30.45,NNW,344,10.0,12.0,75,0.00,,---,0.02,VWS V13.01,2013-01-17 03:21:00,
2013-01-16 21:26:00,-9.1,-14.9,30.45,NNW,336,4.0,12.0,75,0.00,,---,0.02,VWS V13.01,2013-01-17 03:26:00,
2013-01-16 21:31:00,-9.2,-15.0,30.45,NW,317,5.0,12.0,75,0.00,,---,0.02,VWS V13.01,2013-01-17 03:31:00,
2013-01-16 21:36:00,-9.3,-14.8,30.45,WNW,299,7.0,14.0,76,0.00,,---,0.02,VWS V13.01,2013-01-17 03:36:00,
2013-01-16 21:42:00,-9.4,-14.9,30.45,WNW,287,1.0,14.0,76,0.00,,---,0.02,VWS V13.01,2013-01-17 03:42:00,
2013-01-16 21:47:00,-9.6,-15.1,30.47,NNW,344,5.0,5.0,76,0.00,,---,0.02,VWS V13.01,2013-01-17 03:47:00,
2013-01-16 21:52:00,-9.8,-15.3,30.47,NW,309,5.0,11.0,76,0.00,,---,0.02,VWS V13.01,2013-01-17 03:52:00,
2013-01-16 21:57:00,-9.8,-15.3,30.47,NNW,337,2.0,11.0,76,0.00,,---,0.02,VWS V13.01,2013-01-17 03:57:00,
2013-01-16 22:03:00,-9.9,-15.4,30.47,NNE,23,6.0,7.0,76,0.00,,---,0.02,VWS V13.01,2013-01-17 04:03:00,
2013-01-16 22:08:00,-10.0,-15.2,30.47,NNW,345,1.0,9.0,77,0.00,,---,0.02,VWS V13.01,2013-01-17 04:08:00,
2013-01-16 22:13:00,-10.1,-15.3,30.47,NW,318,5.0,13.0,77,0.00,,---,0.02,VWS V13.01,2013-01-17 04:13:00,
2013-01-16 22:18:00,-10.2,-15.4,30.48,NW,321,3.0,9.0,77,0.00,,---,0.02,VWS V13.01,2013-01-17 04:18:00,
2013-01-16 22:24:00,-10.3,-15.5,30.48,NNW,340,6.0,9.0,77,0.00,,---,0.02,VWS V13.01,2013-01-17 04:24:00,
2013-01-16 22:29:00,-10.4,-15.6,30.48,NNW,343,3.0,9.0,77,0.00,,---,0.02,VWS V13.01,2013-01-17 04:29:00,
2013-01-16 22:34:00,-10.5,-15.7,30.50,NNW,343,5.0,12.0,77,0.00,,---,0.02,VWS V13.01,2013-01-17 04:34:00,
2013-01-16 22:39:00,-10.6,-15.8,30.50,North,360,2.0,12.0,77,0.00,,---,0.02,VWS V13.01,2013-01-17 04:39:00,
2013-01-16 22:44:00,-10.7,-15.9,30.50,NNW,341,1.0,12.0,77,0.00,,---,0.02,VWS V13.01,2013-01-17 04:44:00,
2013-01-16 22:50:00,-10.8,-16.0,30.50,NNW,342,4.0,5.0,77,0.00,,---,0.02,VWS V13.01,2013-01-17 04:50:00,
2013-01-16 22:55:00,-11.0,-15.9,30.50,NNW,327,0.0,9.0,78,0.00,,---,0.02,VWS V13.01,2013-01-17 04:55:00,
2013-01-16 23:01:00,-11.2,-16.1,30.51,NNW,328,5.0,9.0,78,0.00,,---,0.02,VWS V13.01,2013-01-17 05:01:00,
2013-01-16 23:03:00,-11.2,-16.1,30.51,NNW,339,2.0,13.0,78,0.00,,---,0.02,VWS V13.01,2013-01-17 05:03:00,
2013-01-16 23:05:00,-11.2,-16.1,30.51,NNW,338,2.0,13.0,78,0.00,,---,0.02,VWS V13.01,2013-01-17 05:05:00,
2013-01-16 23:06:00,-11.3,-16.2,30.51,NNW,333,6.0,13.0,78,0.00,,---,0.02,VWS V13.01,2013-01-17 05:06:00,
2013-01-16 23:11:00,-11.4,-16.3,30.51,NNW,331,2.0,13.0,78,0.00,,---,0.02,VWS V13.01,2013-01-17 05:11:00,
2013-01-16 23:16:00,-11.6,-16.5,30.51,NNW,332,0.0,13.0,78,0.00,,---,0.02,VWS V13.01,2013-01-17 05:16:00,
2013-01-16 23:22:00,-11.7,-16.6,30.51,NNW,338,4.0,7.0,78,0.00,,---,0.02,VWS V13.01,2013-01-17 05:22:00,
2013-01-16 23:27:00,-11.8,-16.7,30.51,NNW,335,0.0,7.0,78,0.00,,---,0.02,VWS V13.01,2013-01-17 05:27:00,
2013-01-16 23:32:00,-12.1,-17.0,30.52,NNW,338,6.0,6.0,78,0.00,,---,0.02,VWS V13.01,2013-01-17 05:32:00,
2013-01-16 23:37:00,-12.2,-16.9,30.52,NNW,335,1.0,6.0,79,0.00,,---,0.02,VWS V13.01,2013-01-17 05:37:00,
2013-01-16 23:42:00,-12.4,-17.0,30.52,NNW,344,3.0,6.0,79,0.00,,---,0.02,VWS V13.01,2013-01-17 05:42:00,
2013-01-16 23:48:00,-12.4,-17.0,30.52,NNW,346,0.0,2.0,79,0.00,,---,0.02,VWS V13.01,2013-01-17 05:48:00,
2013-01-16 23:53:00,-12.6,-17.2,30.52,NW,325,3.0,6.0,79,0.00,,---,0.02,VWS V13.01,2013-01-17 05:53:00,
2013-01-16 23:58:00,-12.7,-17.4,30.52,NNW,331,4.0,6.0,79,0.00,,---,0.02,VWS V13.01,2013-01-17 05:58:00,